This demonstration page uses our WeatherBlox Daily Observations layout. Learn more.

Hourly Observations for June 11, 2016

Temp ( °F °C ) Dew Point ( °F °C ) Humidity (%) Winds ( mph kmh ) Pressure ( in mb ) Visibility ( mi km ) Precip ( " mm )
12:15 am 00:15 Clear 77 25.1 61 16 57 57 SSW 7 11 29.83 1010 10 16.0934 0 0
12:35 am 00:35 Clear 77 24.8 60 15.5 56 56 SSW 8 13 29.83 1010 10 16.0934 0 0
12:55 am 00:55 Clear 77 24.8 59 15 55 55 SSW 9 15 29.83 1010 10 16.0934 0 0
1:15 am 01:15 Clear 76 24.6 58 14.5 53 53 SSW 9 15 29.83 1010 10 16.0934 0 0
1:35 am 01:35 Clear 75 24.1 58 14.5 55 55 SSW 9 15 29.83 1010 10 16.0934 0 0
1:55 am 01:55 Clear 74 23.6 58 14.6 57 57 SSW 5 7 29.83 1010 10 16.0934 0 0
2:15 am 02:15 Clear 74 23.2 58 14.6 59 59 SSW 8 13 29.83 1010 10 16.0934 0 0
2:35 am 02:35 Clear 74 23.5 58 14.5 57 57 SSW 8 13 29.83 1010 10 16.0934 0 0
2:55 am 02:55 Clear 74 23.2 59 14.8 59 59 SSW 7 11 29.83 1010 10 16.0934 0 0
3:15 am 03:15 Clear 73 22.6 59 15 62 62 SW 6 9 29.83 1010 10 16.0934 0 0
3:35 am 03:35 Clear 72 22.1 59 15.1 65 65 SW 6 9 29.85 1011 10 16.0934 0 0
3:55 am 03:55 Clear 73 22.6 59 15.2 63 63 SSW 7 11 29.83 1010 10 16.0934 0 0
4:15 am 04:15 Clear 71 21.7 60 15.3 67 67 SW 6 9 29.85 1011 10 16.0934 0 0
4:35 am 04:35 Clear 71 21.7 60 15.5 68 68 SW 7 11 29.85 1011 10 16.0934 0 0
4:55 am 04:55 Clear 72 22 60 15.5 67 67 SW 6 9 29.85 1011 10 16.0934 0 0
5:15 am 05:15 Clear 71 21.5 60 15.6 69 69 S 6 9 29.85 1011 10 16.0934 0 0
5:35 am 05:35 Clear 69 20.5 60 15.7 74 74 S 5 7 29.85 1011 10 16.0934 0 0
5:55 am 05:55 Clear 69 20.4 60 15.7 75 75 S 5 7 29.85 1011 10 16.0934 0 0
6:15 am 06:15 Sunny 68 20.1 60 15.8 76 76 S 6 9 29.85 1011 10 16.0934 0 0
6:35 am 06:35 Sunny 67 19.7 61 16.1 80 80 S 5 7 29.88 1012 10 16.0934 0 0
6:55 am 06:55 Sunny 70 20.9 62 16.5 76 76 S 7 11 29.88 1012 10 16.0934 0 0
7:15 am 07:15 Sunny 71 21.4 62 16.6 74 74 S 7 11 29.88 1012 10 16.0934 0 0
7:35 am 07:35 Sunny 71 21.7 62 16.7 73 73 S 6 9 29.88 1012 10 16.0934 0 0
7:55 am 07:55 Sunny 72 22.3 62 16.8 71 71 S 6 9 29.88 1012 10 16.0934 0 0
8:15 am 08:15 Sunny 74 23.4 63 17.1 68 68 S 8 13 29.85 1011 10 16.0934 0 0
8:35 am 08:35 Sunny 76 24.6 63 17.2 64 64 SSW 9 15 29.85 1011 10 16.0934 0 0
8:55 am 08:55 Sunny 78 25.5 63 17.4 61 61 SSW 9 15 29.85 1011 10 16.0934 0 0
9:15 am 09:15 Sunny 78 25.7 64 17.6 61 61 SSW 13 20 29.85 1011 10 16.0934 0 0
9:35 am 09:35 Sunny 79 26.3 64 17.8 60 60 SW 12 19 29.85 1011 10 16.0934 0 0
9:55 am 09:55 Sunny 81 27 64 17.8 57 57 SSW 12 19 29.83 1010 10 16.0934 0 0
10:15 am 10:15 Sunny 82 27.5 64 18 56 56 SSW 13 20 29.85 1011 10 16.0934 0 0
10:35 am 10:35 Sunny 82 27.8 65 18.1 56 56 SSW 13 20 29.85 1011 10 16.0934 0 0
10:55 am 10:55 Sunny 83 28.1 65 18.3 55 55 SSW 12 19 29.85 1011 10 16.0934 0 0
11:15 am 11:15 Sunny 83 28.6 65 18.5 54 54 S 12 19 29.85 1011 10 16.0934 0 0
11:35 am 11:35 Sunny 83 28.6 65 18.3 54 54 SSE 12 19 29.85 1011 10 16.0934 0 0
11:55 am 11:55 Sunny 85 29.4 65 18.3 51 51 S 12 19 29.83 1010 10 16.0934 0 0
12:15 pm 12:15 Sunny 86 30.1 65 18.2 49 49 S 13 20 29.83 1010 10 16.0934 0 0
12:35 pm 12:35 Sunny 87 30.5 66 18.7 49 49 S 15 24 29.8 1009 10 16.0934 0 0
12:55 pm 12:55 Sunny 87 30.6 65 18.5 48 48 S 14 22 29.8 1009 10 16.0934 0 0
1:15 pm 13:15 Sunny 88 31.1 65 18.1 46 46 S 17 28 29.8 1009 10 16.0934 0 0
1:35 pm 13:35 Sunny 89 31.5 65 18.5 46 46 S 18 30 29.8 1009 10 16.0934 0 0
1:55 pm 13:55 Sunny 89 31.6 66 18.8 47 47 S 18 30 29.8 1009 10 16.0934 0 0
2:15 pm 14:15 Sunny 89 31.8 65 18.5 45 45 SSE 16 26 29.8 1009 10 16.0934 0 0
2:35 pm 14:35 Sunny 89 31.5 64 18 45 45 SSE 20 31 29.8 1009 10 16.0934 0 0
2:55 pm 14:55 Sunny 90 32.2 64 17.8 42 42 S 20 31 29.77 1008 10 16.0934 0 0
3:15 pm 15:15 Sunny 91 32.9 64 17.5 40 40 S 21 33 29.77 1008 10 16.0934 0 0
3:35 pm 15:35 Sunny 90 32.4 63 17.4 41 41 S 18 30 29.77 1008 10 16.0934 0 0
3:55 pm 15:55 Sunny 91 32.7 63 17.2 40 40 S 20 31 29.77 1008 10 16.0934 0 0
4:15 pm 16:15 Sunny 91 32.7 62 16.7 38 38 S 18 30 29.77 1008 10 16.0934 0 0
4:35 pm 16:35 Sunny 91 32.7 61 16.3 37 37 S 17 28 29.77 1008 10 16.0934 0 0
4:55 pm 16:55 Sunny 91 32.7 61 16 37 37 S 17 28 29.77 1008 10 16.0934 0 0
5:15 pm 17:15 Sunny 91 32.7 61 16.2 37 37 S 15 24 29.77 1008 10 16.0934 0 0
5:35 pm 17:35 Sunny 91 32.5 61 15.9 37 37 S 22 35 29.77 1008 10 16.0934 0 0
5:55 pm 17:55 Sunny 91 32.8 61 16.1 37 37 SSE 17 28 29.74 1007 10 16.0934 0 0
6:15 pm 18:15 Sunny 91 32.5 61 15.9 37 37 SSE 18 30 29.74 1007 10 16.0934 0 0
6:35 pm 18:35 Sunny 90 32.2 60 15.5 36 36 S 21 33 29.74 1007 10 16.0934 0 0
6:55 pm 18:55 Sunny 90 32 60 15.6 37 37 S 16 26 29.74 1007 10 16.0934 0 0
7:15 pm 19:15 Sunny 89 31.6 60 15.4 38 38 S 17 28 29.74 1007 10 16.0934 0 0
7:35 pm 19:35 Sunny 88 31 60 15.6 39 39 S 16 26 29.74 1007 10 16.0934 0 0
7:55 pm 19:55 Sunny 87 30.8 61 16.3 42 42 SSE 14 22 29.74 1007 10 16.0934 0 0
8:15 pm 20:15 Sunny 86 30.1 61 16.2 43 43 SSE 15 24 29.77 1008 10 16.0934 0 0
8:35 pm 20:35 Sunny 84 29.1 62 16.5 47 47 SSE 12 19 29.8 1009 10 16.0934 0 0
8:55 pm 20:55 Sunny 84 28.7 61 16.3 47 47 SSE 13 20 29.8 1009 10 16.0934 0 0
9:15 pm 21:15 Clear 82 28 61 16.2 49 49 SSE 14 22 29.8 1009 10 16.0934 0 0
9:35 pm 21:35 Clear 82 27.5 61 16 50 50 SSE 12 19 29.83 1010 10 16.0934 0 0
9:55 pm 21:55 Clear 81 27 60 15.8 50 50 SE 12 19 29.83 1010 10 16.0934 0 0
10:15 pm 22:15 Clear 80 26.5 61 15.9 52 52 SE 10 17 29.83 1010 10 16.0934 0 0
10:35 pm 22:35 Clear 78 25.7 61 16 55 55 SE 9 15 29.88 1012 10 16.0934 0 0
10:55 pm 22:55 Clear 78 25.3 61 16.2 57 57 SE 10 17 29.88 1012 10 16.0934 0 0
11:15 pm 23:15 Clear 77 25.1 62 16.5 59 59 SSE 10 17 29.88 1012 10 16.0934 0 0
11:35 pm 23:35 Clear 77 25 62 16.5 59 59 SSE 10 17 29.88 1012 10 16.0934 0 0
11:55 pm 23:55 Clear 76 24.5 62 16.5 61 61 SSE 12 19 29.88 1012 10 16.0934 0 0

Powered by AerisWeather